Racine, WI

12:52 AM CDT on August 25, 2016 (GMT -0500)
Batten

Weather History for KRAC - June, 2014

Change the Weather History Date:

Tuesday, June 17, 2014

  Actual Average Record
Temperature  
Mean Temperature 74 °F -  
Max Temperature 84 °F 72 °F 91 °F (2013)
Min Temperature 64 °F 55 °F 43 °F (1972)
Cooling Degree Days 9    
Growing Degree Days 24 (Base 50)    
Moisture  
Dew Point 64 °F    
Average Humidity 78    
Maximum Humidity 96    
Minimum Humidity 51    
Precipitation  
Precipitation 0.86 in - - ()
Sea Level Pressure  
Sea Level Pressure 29.87 in    
Wind  
Wind Speed 9 mph (SSW)    
Max Wind Speed 22 mph    
Max Gust Speed 30 mph    
Visibility 9 miles    
Events Rain , Thunderstorm    
Averages and records for this station are not official NWS values.
T = Trace of Precipitation, MM = Missing Value Source: NWS Daily Summary

Daily Weather History Graph

Daily Weather History Graph

Search for Another Location

Airport or City:

Trip Planner

Search our weather history database for the weather conditions in past years. The results will help you decide how hot, cold, wet, or windy it might be!

Date:

Astronomy

Jun. 17, 2014 Rise Set
Actual Time 5:12 AM CDT 8:32 PM CDT
Civil Twilight 4:37 AM CDT 9:07 PM CDT
Nautical Twilight 3:51 AM CDT 9:52 PM CDT
Astronomical Twilight 2:55 AM CDT 10:49 PM CDT
Moon 11:53 PM CDT (6/17) 10:32 AM CDT (6/17)
Length of Visible Light 16h 29m
Length of Day
15h 19m
Waning Gibbous, 73% of the Moon is Illuminated
Jun 17
Waning Gibbous
Jun 19
Last Quarter
Jun 27
New
Jul 5
First Quarter
Jul 12
Full

Hourly Weather History & Observations

Time (CDT) Temp. Heat Index Dew Point Humidity Pressure Visibility Wind Dir Wind Speed Gust Speed Precip Events Conditions
12:53 AM 66.9 °F - 62.1 °F 84% 29.87 in 10.0 mi South 10.4 mph - 0.00 in Rain Light Rain
1:53 AM 68.0 °F - 64.9 °F 90% 29.86 in 10.0 mi South 6.9 mph - 0.01 in   Scattered Clouds
2:10 AM 68.0 °F - 64.9 °F 90% 29.91 in 6.0 mi SW 6.9 mph - 0.01 in Rain , Thunderstorm Light Rain
2:23 AM 70.0 °F - 64.9 °F 84% 29.94 in 2.5 mi WNW 21.9 mph 29.9 mph 0.12 in Rain , Thunderstorm Heavy Thunderstorms and Rain
2:29 AM 66.9 °F - 64.0 °F 90% 29.96 in 1.5 mi West 12.7 mph 29.9 mph 0.21 in Rain , Thunderstorm Heavy Thunderstorms and Rain
2:53 AM 66.0 °F - 64.0 °F 93% 29.90 in 3.0 mi WSW 3.5 mph - 0.55 in Rain , Thunderstorm Light Thunderstorms and Rain
3:06 AM 66.9 °F - 64.0 °F 90% 29.87 in 1.5 mi WSW 4.6 mph 18.4 mph 0.14 in Rain , Thunderstorm Heavy Thunderstorms and Rain
3:16 AM 66.9 °F - 64.0 °F 90% 29.88 in 4.0 mi South 11.5 mph 18.4 mph 0.15 in Rain , Thunderstorm Light Thunderstorms and Rain
3:38 AM 66.9 °F - 64.9 °F 93% 29.84 in 10.0 mi South 5.8 mph - 0.17 in Rain , Thunderstorm Light Rain
3:50 AM 66.2 °F - 64.4 °F 94% 29.84 in 10.0 mi SSW 8.1 mph - 0.17 in Rain Light Rain
3:53 AM 66.0 °F - 64.9 °F 96% 29.83 in 10.0 mi South 6.9 mph - 0.17 in Rain Light Rain
4:53 AM 66.0 °F - 64.0 °F 93% 29.81 in 10.0 mi South 8.1 mph - 0.00 in   Clear
5:53 AM 64.9 °F - 62.1 °F 90% 29.82 in 10.0 mi South 10.4 mph - N/A Thunderstorm Mostly Cloudy
6:02 AM 64.9 °F - 63.0 °F 93% 29.82 in 5.0 mi South 8.1 mph - 0.04 in Rain , Thunderstorm Thunderstorms and Rain
6:43 AM 70.0 °F - 68.0 °F 93% 29.81 in 7.0 mi South 6.9 mph - 0.12 in Rain , Thunderstorm Light Rain
6:53 AM 71.1 °F - 69.1 °F 93% 29.79 in 7.0 mi SSW 6.9 mph - 0.12 in Rain Light Rain
7:53 AM 73.9 °F - 69.1 °F 85% 29.76 in 10.0 mi SSW 18.4 mph 26.5 mph 0.01 in   Clear
8:53 AM 75.9 °F - 70.0 °F 82% 29.81 in 10.0 mi WNW 10.4 mph - N/A   Partly Cloudy
9:10 AM 75.9 °F - 70.0 °F 82% 29.83 in 10.0 mi WNW 11.5 mph 20.7 mph N/A   Mostly Cloudy
9:29 AM 73.9 °F - 66.9 °F 79% 29.85 in 10.0 mi WNW 11.5 mph 23.0 mph N/A   Scattered Clouds
9:53 AM 73.9 °F - 66.9 °F 79% 29.83 in 10.0 mi WNW 11.5 mph 17.3 mph N/A   Clear
10:53 AM 77.0 °F - 64.9 °F 66% 29.84 in 10.0 mi WSW 10.4 mph - N/A   Clear
11:53 AM 78.1 °F - 62.1 °F 58% 29.86 in 10.0 mi West 18.4 mph 24.2 mph N/A   Clear
12:53 PM 80.1 °F 81.7 °F 64.0 °F 58% 29.88 in 10.0 mi West 12.7 mph 20.7 mph N/A   Clear
1:53 PM 82.0 °F 83.4 °F 64.0 °F 54% 29.88 in 10.0 mi West 13.8 mph 20.7 mph N/A   Clear
2:53 PM 82.0 °F 83.8 °F 64.9 °F 56% 29.88 in 10.0 mi WNW 8.1 mph - N/A   Clear
3:53 PM 84.0 °F 85.4 °F 64.0 °F 51% 29.89 in 10.0 mi WNW 6.9 mph - N/A   Clear
4:53 PM 84.9 °F 86.6 °F 64.9 °F 51% 29.90 in 10.0 mi WSW 5.8 mph - N/A   Clear
5:53 PM 80.1 °F 81.7 °F 64.0 °F 58% 29.90 in 10.0 mi ESE 6.9 mph - N/A   Clear
6:53 PM 78.1 °F - 64.0 °F 62% 29.91 in 10.0 mi ESE 4.6 mph - N/A   Clear
7:53 PM 73.9 °F - 62.1 °F 66% 29.91 in 10.0 mi East 3.5 mph - N/A   Mostly Cloudy
8:53 PM 71.1 °F - 62.1 °F 73% 29.91 in 10.0 mi ESE 3.5 mph - N/A   Mostly Cloudy
9:53 PM 70.0 °F - 61.0 °F 73% 29.93 in 10.0 mi South 8.1 mph - N/A   Mostly Cloudy
10:04 PM 69.1 °F - 60.1 °F 73% 29.95 in 10.0 mi South 11.5 mph - N/A Thunderstorm Mostly Cloudy
10:19 PM 68.0 °F - 60.1 °F 76% 29.94 in 10.0 mi SSE 10.4 mph - N/A   Mostly Cloudy
10:53 PM 69.1 °F - 61.0 °F 75% 29.94 in 10.0 mi SSE 9.2 mph - N/A   Scattered Clouds
11:50 PM 71.6 °F - 60.8 °F 69% 29.94 in 10.0 mi South 8.1 mph 18.4 mph 0.00 in Rain , Thunderstorm Light Thunderstorms and Rain
11:53 PM 71.1 °F - 61.0 °F 70% 29.94 in 10.0 mi South 5.8 mph - 0.00 in Rain , Thunderstorm Light Thunderstorms and Rain